Zurück zum Katalog

STARLINK-35436

AktivKommunikationVLEO
NORAD 65932·PAYLOAD·🇺🇸 United States

Gestartet Oct 8, 2025 von Vandenberg Space Force Base

Loading…

Nächste Überflüge (nächste 24 Stunden)

TLE

AktuellSource: CelesTrak SupGP

Epoche: Sep 15, 2026, 02:57 UTC

1 65932C 25225Y   26258.12340278  .00065716  00000+0  19413-2 0  2583
2 65932  53.1596   4.8710 0001111  95.4552 279.4236 15.34362134    16

Verfolge STARLINK-35436 in Echtzeit mit AllMySat

Download on the App Store